Вернуться в каталог

BREEZE-M R/B

АктивенHEO
NORAD 28394·ROCKET BODY·🇷🇺 Russia

Запущен Aug 4, 2004 с Baikonur Cosmodrome

Loading…

Ближайшие Пролёты (ближайшие 24 часа)

TLE

СвежийSource: Space-Track

Эпоха: Sep 14, 2026, 07:15 UTC

1 28394U 04031B   26257.30250520 -.00000173  00000-0  00000-0 0  9995
2 28394   9.1811  70.1344 6266158   8.5666 358.4397  2.10291528169906

Отслеживайте BREEZE-M R/B в реальном времени с AllMySat

Download on the App Store